This demonstration page uses our WeatherBlox Daily Observations layout. Learn more.

Hourly Observations for August 29, 2017

Temp ( °F °C ) Dew Point ( °F °C ) Humidity (%) Winds ( mph kmh ) Pressure ( in mb ) Visibility ( mi km ) Precip ( " mm )
12:54 am 00:54 Clear 59 15 57 13.9 93 93 N 6 9 30.09 1019 9 14.48406 0 0
1:54 am 01:54 Clear 58 14.4 56 13.3 93 93 N 6 9 30.09 1019 10 16.0934 0 0
2:54 am 02:54 Clear 60 15.6 57 13.9 90 90 NNW 6 9 30.09 1019 10 16.0934 0 0
3:54 am 03:54 Clear 57 13.9 56 13.3 96 96 NNW 3 6 30.09 1019 9 14.48406 0 0
4:54 am 04:54 Clear 55 12.8 53 11.7 93 93 N 3 6 30.1 1019 9 14.48406 0 0
5:54 am 05:54 Clear 55 12.8 53 11.7 93 93 NNE 3 6 30.11 1020 8 12.87472 0 0
6:54 am 06:54 Sunny 54 12.2 53 11.7 97 97 N 3 6 30.11 1020 7 11.26538 0 0
7:54 am 07:54 Sunny 59 15 56 13.3 90 90 N 5 7 30.13 1020 7 11.26538 0 0
8:54 am 08:54 Sunny 64 17.8 59 15 84 84 Calm 30.13 1020 8 12.87472 0 0
9:54 am 09:54 Sunny 70 21.1 62 16.7 76 76 NW 3 6 30.12 1020 8 12.87472 0 0
10:54 am 10:54 Sunny 73 22.8 60 15.6 64 64 VRB 5 7 30.13 1020 10 16.0934 0 0
11:54 am 11:54 Sunny 75 23.9 60 15.6 60 60 N 7 11 30.13 1020 10 16.0934 0 0
12:54 pm 12:54 Partly Cloudy 77 25 59 15 54 54 Calm 30.11 1020 10 16.0934 0 0
1:54 pm 13:54 Partly Cloudy 78 25.6 60 15.6 54 54 VRB 3 6 30.1 1019 10 16.0934 0 0
2:54 pm 14:54 Partly Cloudy 78 25.6 60 15.6 54 54 VRB 3 6 30.08 1019 10 16.0934 0 0
3:54 pm 15:54 Mostly Sunny 79 26.1 59 15 50 50 VRB 6 9 30.07 1018 10 16.0934 0 0
4:54 pm 16:54 Sunny 79 26.1 59 15 50 50 ENE 9 15 30.06 1018 10 16.0934 0 0
5:54 pm 17:54 Sunny 78 25.6 59 15 52 52 NE 6 9 30.06 1018 10 16.0934 0 0
6:54 pm 18:54 Sunny 76 24.4 59 15 56 56 ENE 8 13 30.05 1018 10 16.0934 0 0
8:54 pm 20:54 Clear 68 20 58 14.4 70 70 E 3 6 30.07 1018 10 16.0934 0 0
9:54 pm 21:54 Clear 69 20.6 59 15 70 70 Calm 30.07 1018 9 14.48406 0 0
11:54 pm 23:54 Clear 62 16.7 58 14.4 86 86 Calm 30.07 1018 10 16.0934 0 0

Powered by AerisWeather